sat.trackr.live / text

‹ back to catalog

STARLINK-3230

NORAD 50845 · 2022-001AU

PAYLOAD ACTIVE UNKNOWN

§ Identity

Operator
Country
US
Launch date
2022-01-06
Launch site
AFETR
Launch vehicle
Mass (kg)
RCS (m²)

Purposes: comms

External: N2YO · Heavens-Above · Gunter

§ Orbital elements

Epoch: 2026-09-19T22:08:51.767232Z

Period
94.01 min
Inclination
53.1623°
Eccentricity
0.0001215
Mean motion
15.31681601 rev/d
Perigee alt
470.0 km
Apogee alt
471.6 km
Semi-major
6,848.9 km
B*
2.4184e-4
RAAN
13.1845°
Arg perigee
96.0744°
Mean anomaly
264.0396°
Rev number
25,978

§ Raw data

STARLINK-32301 50845U 22001AU  26262.92282138  .00007142  00000+0  24184-3 0  99952 50845  53.1623  13.1845 0001215  96.0744 264.0396 15.31681601259788

JSON: /api/v1/satellites/50845 · /tle

For live sub-satellite position, see the globe view (requires WebGL).

§ Visibility from observer

Set your observer location to see the next 7 days of passes ≥ 10°. The values pass through the URL so the page stays shareable.

No JS? Fill the form by hand. The geolocation button needs JavaScript.